Regional Weather Roundup
Issued by NWS

Home | Current Version | Previous Version | Graphics & Text | Print | Product List | Glossary On
Versions: 1 2 3 4 5 6 7 8 9 10 11 12 13 14 15 16 17 18 19 20 21 22 23 24 25 26 27 28 29 30 31 32 33 34 35 36 37 38 39 40 41 42 43 44 45 46 47 48 49 50
000
ASUS43 KLOT 270703
RWRIL

ILLINOIS REGIONAL WEATHER ROUNDUP
NATIONAL WEATHER SERVICE CHICAGO/ROMEOVILLE IL
200 AM CDT FRI MAY 27 2016

NOTE: "FAIR" INDICATES FEW OR NO CLOUDS BELOW 12,000 FEET WITH NO
SIGNIFICANT WEATHER AND/OR OBSTRUCTIONS TO VISIBILITY.

* THESE STATIONS ARE NOT UNDER NWS QUALITY CONTROL. THEY ALSO MAY NOT
  REPORT WEATHER SUCH AS PRECIPITATION OR FOG.

ILZ001-002-007-009-015-016-024-270800-
NORTHWEST ILLINOIS

CITY           SKY/WX    TMP DP  RH WIND       PRES   REMARKS
MOLINE         CLOUDY    71  59  65 SW6       29.85S
STERLING*      CLOUDY    73  68  84 S6        29.86S
$$

ILZ003-004-008-010-011-017-018-270800-
NORTH CENTRAL ILLINOIS

CITY           SKY/WX    TMP DP  RH WIND       PRES   REMARKS
ROCKFORD       CLOUDY    68  64  87 CALM      29.88S
FREEPORT*      MOCLDY    65  62  87 SE5       29.87R
ROCHELLE*      CLOUDY    70  67  91 S9        29.88R
$$

ILZ005-006-012>014-019>023-270800-
NORTHEAST ILLINOIS

CITY           SKY/WX    TMP DP  RH WIND       PRES   REMARKS
CHICAGO-OHARE  CLOUDY    71  67  87 S7        29.89R
CHICAGO-MIDWAY CLOUDY    72  65  78 S9        29.90R
AURORA         CLOUDY    72  68  87 S13       29.89R
LANSING*       CLOUDY    68  64  86 S7        29.93R
WAUKEGAN       CLOUDY    69  64  84 S6        29.87R
DUPAGE AIRPORT CLOUDY    71  66  84 S12       29.89R
WHEELING       PTCLDY    73  67  81 S10       29.89R
NORTHERLY ISL    N/A     72  64  76 S5          N/A
NORTHERLY ISL    N/A     72  64  76 S5          N/A
$$

LMZ740>746-270800-
SOUTHERN LAKE MICHIGAN

STATION/POSITION SKY/WX   TEMP    WIND        PRES    VSBY  WAVE
                          AIR SEA DIR/SP/G                  HT/PER
                          (F)     (DEG/KT/KT) (MB)    (MI)  (FT/S)
SOUTHERN BUOY              58 50  150/ 10/ 10 1011.5          0
WILMETTE HARBOR            64 58  190/  8/ 10   N/A           1
HARRISON CRIB              74     210/ 19/ 20   N/A
BURNHAM HARBOR             72     240/  6/ 11   N/A
CALUMET HARBOR             71                 1011.7F
BURNS HARBOR               71     190/ 13/ 18 1012.9S
MICHIGAN CITY              71     180/ 10/ 13   N/A
MICHIGAN CITY 6N           66 59  210/  8/ 12   N/A           1
ST. JOSEPH                 65 62  180/  8/ 10   N/A           1
$$

ILZ025>027-034>036-040-047-049-050-058-095>099-270800-
WEST-CENTRAL ILLINOIS

CITY           SKY/WX    TMP DP  RH WIND       PRES   REMARKS
QUINCY         CLOUDY    65  63  93 N8        29.87F
MACOMB*        TSTM      64  63  98 SW9       29.98R
PITTSFIELD*    CLOUDY    65  63  94 N3        29.87F
$$

ILZ028>032-037-038-041>044-048-051>054-059>061-270800-
CENTRAL ILLINOIS

CITY           SKY/WX    TMP DP  RH WIND       PRES   REMARKS
BLOOMINGTON    CLOUDY    68  67  96 S10       29.94S
DECATUR        CLOUDY    69  62  78 SW10      29.93S
PEORIA         CLOUDY    71  65  81 SW14      29.91R
SPRINGFIELD    LGT RAIN  70  65  84 S10       29.92S
TAYLORVILLE    NOT AVBL
$$

ILZ033-039-045-046-055>057-062-063-270800-
EAST-CENTRAL ILLINOIS

CITY           SKY/WX    TMP DP  RH WIND       PRES   REMARKS
CHAMPAIGN      MOCLDY    66  62  87 S5        29.94F
MATTOON        CLOUDY    67  61  81 S7        29.93S
$$

ILZ079-100>102-270800-
SOUTHWEST ILLINOIS

CITY           SKY/WX    TMP DP  RH WIND       PRES   REMARKS
BELLEVILLE     LGT RAIN  68  67  99 E2        29.92S
CAHOKIA*       CLOUDY    70  64  81 SW7       29.93R
SPARTA*        CLOUDY    67  64  90 SW12G20   29.93R
$$

ILZ064>066-069>071-074>076-080>082-084>086-088>090-092>094-270800-
SOUTH-CENTRAL ILLINOIS

CITY           SKY/WX    TMP DP  RH WIND       PRES   REMARKS
CARBONDALE     LGT RAIN  68  63  84 SW14      29.93S
MT. VERNON     CLOUDY    64  59  82 CALM      29.96S
SALEM*         CLOUDY    68  64  85 S5        29.94F
$$

ILZ067-068-072-073-078-083-087-091-270800-
SOUTHEAST ILLINOIS

CITY           SKY/WX    TMP DP  RH WIND       PRES   REMARKS
LAWRENCEVILLE  CLOUDY    67  65  93 SE8       29.97S
FLORA*         CLOUDY    67  65  91 SW3       29.95S
HARRISBURG*    CLOUDY    68  64  88 CALM      29.95F
ROBINSON*      CLOUDY    64  63  97 SE3       29.97S
$$

ABBREVIATIONS USED IN REMARKS
   TC - TEMPERATURE IN CELSIUS
  WCI - WIND CHILL INDEX
   HX - HEAT INDEX
  VSB - VISIBILITY
$$





USA.gov is the U.S. government's official web portal to all federal, state and local government web resources and services.